Home   Weather   Liestal   Past weeks

Flag for Switzerland Past Weather in Liestal, Basel-Land, Switzerland — Yesterday and Last 2 Weeks

Now
48 °F

Broken clouds.


Feels Like: 45 °F
Forecast: 25 / 55 °F
Wind: 8 mph from South

Location: Bale-Mulhouse

Current Time: Apr 28, 2017 at 3:55:29 pm

Latest Report: Apr 28, 2017 at 3:00 pm


Visibility: N/A

Pressure: 30.01 "Hg

Humidity: 66%

Dew Point: 37 °F

Location of LiestalLocation

Past Weather in Liestal — Graph

°F

Liestal Temperature Yesterday

Maximum temperature yesterday: 45 °F (at 5:00 pm)
Minimum temperature yesterday: 36 °F (at 5:00 am)
Average temperature yesterday: 40 °F

High & Low Weather Summary for the Past Weeks

 TemperatureHumidityPressure
High70 °F (Apr 24, 4:30 pm)100% (Apr 17, 4:30 am)30.54 "Hg (Apr 17, 4:30 am)
Low25 °F (Apr 20, 7:00 am)19% (Apr 21, 6:00 pm)29.74 "Hg (Apr 25, 5:30 pm)
Average46 °F70%30.12 "Hg
* Reported Apr 13 2:00 pm — Apr 28 2:00 pm, Liestal, Weather by CustomWeather, © 2017

Note: Actual official high and low records may vary slightly from our data, if they occured in-between our weather recording intervals... More about our weather records

Advertising

Liestal Weather History for the Previous 24 Hours

Scroll right to see more
 ConditionsComfort  
Time TempWeatherWind HumidityBarometerVisibility
2:00 pm
Fri, Apr 28
45 °FLight rain. Partly sunny.8 mph76%30.01 "HgN/A
1:30 pm48 °FBroken clouds.5 mph58%29.98 "HgN/A
1:00 pm48 °FBroken clouds.6 mph58%29.98 "HgN/A
12:30 pm50 °FBroken clouds.5 mph62%29.98 "HgN/A
12:00 pm48 °FBroken clouds.5 mph71%29.98 "HgN/A
11:30 am46 °FBroken clouds.5 mph71%29.98 "HgN/A
11:11 am45 °FBroken clouds.6 mph76%29.98 "HgN/A
10:30 am45 °FPartly sunny.7 mph76%29.98 "HgN/A
9:30 am43 °FPartly sunny.7 mph87%29.95 "Hg6 mi
9:00 am43 °FBroken clouds.8 mph87%29.95 "Hg6 mi
8:30 am41 °FPartly sunny.7 mph93%29.95 "Hg4 mi
8:00 am41 °FPartly sunny.5 mph87%29.95 "Hg4 mi
7:30 am39 °FBroken clouds.3 mph93%29.92 "Hg4 mi
7:00 am39 °FDrizzle. Broken clouds.6 mph93%29.92 "Hg4 mi
6:30 am39 °FLight rain. Broken clouds.7 mph93%29.92 "Hg2 mi
6:00 am39 °FLight rain. Passing clouds.8 mph100%29.92 "Hg2 mi
5:30 am39 °FLight rain. Passing clouds.6 mph100%29.92 "Hg2 mi
5:00 am39 °FLight rain. Mostly cloudy.2 mph100%29.92 "Hg2 mi
4:30 am39 °FLight rain. Partly cloudy.2 mph100%29.92 "Hg2 mi
4:00 am39 °FLight rain. Fog.3 mph100%29.89 "Hg2 mi
3:30 am39 °FLight rain. Fog.3 mph100%29.92 "Hg2 mi
3:00 am39 °FLight rain. Fog.5 mph93%29.92 "Hg2 mi
2:30 am39 °FLight rain. Fog.3 mph93%29.92 "Hg3 mi
2:00 am39 °FDrizzle. Fog.2 mph93%29.92 "Hg3 mi
1:30 am39 °FLight rain. Overcast.5 mph93%29.92 "Hg4 mi
1:00 am39 °FLight rain. Overcast.8 mph93%29.92 "Hg4 mi
12:30 am39 °FLight rain. Passing clouds.7 mph93%29.95 "Hg4 mi
12:00 am39 °FLight rain. Partly cloudy.8 mph93%29.95 "Hg2 mi
11:30 pm
Thu, Apr 27
39 °FLight rain. Partly cloudy.8 mph93%29.95 "Hg2 mi
11:00 pm41 °FLight rain. Partly cloudy.5 mph93%29.95 "Hg2 mi
10:30 pm41 °FLight rain. Passing clouds.5 mph93%29.95 "Hg2 mi
10:00 pm41 °FLight rain. Passing clouds.6 mph93%29.95 "Hg2 mi
9:30 pm41 °FLight rain. Passing clouds.7 mph93%29.95 "Hg2 mi
9:00 pm41 °FLight rain. Passing clouds.6 mph93%29.95 "Hg2 mi
8:30 pm41 °FLight rain. Broken clouds.2 mph93%29.95 "Hg4 mi
8:00 pm41 °FLight rain. Broken clouds.5 mph93%29.95 "Hg4 mi
7:30 pm41 °FMixture of precip. Broken clouds.3 mph93%29.95 "Hg5 mi
7:00 pm43 °FLight rain. Broken clouds.5 mph87%29.95 "Hg5 mi
6:30 pm43 °FLight rain. Broken clouds.6 mph87%29.95 "Hg5 mi
6:00 pm45 °FBroken clouds.3 mph76%29.95 "HgN/A
5:30 pm45 °FLight rain. Broken clouds.5 mph81%29.95 "HgN/A
5:00 pm45 °FBroken clouds.6 mph81%29.95 "HgN/A
4:30 pm43 °FBroken clouds.5 mph87%29.95 "HgN/A
4:00 pm43 °FPartly sunny.5 mph81%29.98 "HgN/A
3:30 pm43 °FBroken clouds.6 mph81%29.98 "HgN/A
Weather by CustomWeather, © 2017

See weather overviewHow to use our weather pages